Location: Les Chemineaux
(47.3024°N, 1.5104°E)
Time: 20:29:27
(UTC+00:00)

Cosmos 1980 Rocket - Pass Details

Date: 19 May 2025
Orbit: 829 x 848 km, 71.0° (Epoch: 21 June)

Event Time Altitude Azimuth Distance (km) Brightness Sun altitude
Rises 20:45:32 0° 337° (NNW) 3,383 6.8 -10.9°
Reaches altitude 10° 20:48:12 10° 346° (NNW) 2,446 5.6 -11.3°
Maximum altitude 20:53:19 35° 52° (NE) 1,313 3.2 -11.8°
Enters shadow 20:57:38 14° 113° (ESE) 2,180 3.8 -12.3°
